CW4141 Weather Reports


Display with metric or nautical units.
time (UTC)temp
F
wind
direction
speed
MPH
gust
MPH
rain 1hr
in
rain 24hr
in
rain mn
in
humidity
%
barometer
mb
20260503210054 65 170 1.0 7.0 0.00 0.02 0.02 66 1014.2
20260503210027 65 170 0.0 6.0 0.00 0.02 0.02 67 1011.0
20260503204557 64 0 0.0 6.0 0.00 0.02 0.02 69 1014.4
20260503204524 64 161 1.0 5.0 0.00 0.02 0.02 69 1011.2
20260503203100 63 0 0.0 6.0 0.00 0.02 0.02 70 1014.5
20260503203033 63 153 0.0 5.0 0.00 0.02 0.02 71 1011.3
20260503201553 63 0 0.0 3.0 0.00 0.02 0.02 73 1014.5
20260503201519 63 153 0.0 3.0 0.00 0.02 0.02 73 1011.4
20260503200055 62 153 0.0 3.0 0.00 0.02 0.02 75 1014.6
20260503200018 62 153 0.0 3.0 0.00 0.02 0.02 75 1011.4
20260503194559 61 0 1.0 5.0 0.00 0.02 0.02 77 1014.7
20260503194515 61 153 1.0 4.0 0.00 0.02 0.02 78 1011.6
20260503193053 61 153 0.0 3.0 0.00 0.02 0.02 79 1015.1
20260503193017 61 153 0.0 3.0 0.00 0.02 0.02 79 1011.8
20260503191553 61 0 0.0 5.0 0.00 0.02 0.02 79 1015.1
20260503191511 61 153 0.0 3.0 0.00 0.02 0.02 80 1011.9
20260503190050 61 0 0.0 2.0 0.00 0.02 0.02 81 1015.2
20260503190010 61 152 0.0 2.0 0.00 0.02 0.02 82 1011.9
20260503184550 60 0 0.0 5.0 0.00 0.02 0.02 82 1015.2
20260503184509 60 152 0.0 4.0 0.00 0.02 0.02 83 1011.9
20260503183057 60 0 0.0 2.0 0.00 0.02 0.02 84 1015.3
20260503183006 60 152 0.0 2.0 0.00 0.02 0.02 85 1011.9
20260503181557 59 0 0.0 6.0 0.00 0.02 0.02 84 1015.2
20260503181505 59 151 0.0 5.0 0.00 0.02 0.02 85 1011.9
20260503180100 59 0 1.0 5.0 0.00 0.02 0.02 85 1015.3
20260503180003 59 151 1.0 4.0 0.00 0.02 0.02 86 1011.9
20260503174559 59 151 0.0 2.0 0.00 0.02 0.02 86 1015.4
20260503174506 59 151 0.0 1.0 0.00 0.02 0.02 87 1011.9
20260503173107 59 0 0.0 2.0 0.00 0.02 0.02 88 1015.2
20260503173001 59 151 0.0 2.0 0.00 0.02 0.02 89 1011.8
20260503171601 58 151 1.0 4.0 0.00 0.02 0.02 90 1011.7
20260503171552 58 151 1.0 5.0 0.00 0.02 0.02 90 1015.1
20260503110108 57 0 0.0 1.0 0.00 0.00 0.00 92 1013.4
20260503081553 57 0 0.0 4.0 0.00 0.00 0.00 90 1014.5
20260503081522 57 150 0.0 4.0 0.00 0.00 0.00 91 1010.9
20260503071610 57 148 1.0 6.0 0.00 0.00 0.00 89 1014.8
20260503071514 57 148 1.0 4.0 0.00 0.00 0.00 89 1010.9
20260503060125 59 145 0.0 3.0 0.00 0.00 0.00 85 1014.1
20260503054601 59 0 0.0 4.0 0.00 0.00 0.00 84 1014.2
20260503054510 59 145 0.0 2.0 0.00 0.00 0.00 84 1010.3
20260503053058 60 145 0.0 3.0 0.00 0.00 0.00 82 1014.0
20260503053011 60 145 0.0 3.0 0.00 0.00 0.00 83 1010.2
20260503051552 60 0 0.0 4.0 0.00 0.00 0.00 81 1013.9
20260503051508 60 145 0.0 4.0 0.00 0.00 0.00 82 1010.2
20260503050057 61 0 0.0 3.0 0.00 0.00 0.00 80 1013.8
20260503050008 61 144 0.0 3.0 0.00 0.00 0.00 80 1009.8
20260503044551 62 144 0.0 4.0 0.00 0.00 0.00 79 1013.7
20260503044515 62 144 0.0 4.0 0.00 0.00 0.00 79 1009.8
20260503043053 62 144 0.0 4.0 0.00 0.00 0.00 78 1013.4
20260503043007 62 144 0.0 4.0 0.00 0.00 0.00 78 1009.6
20260503041552 63 144 0.0 3.0 0.00 0.00 0.00 76 1013.2
20260503041507 63 144 0.0 2.0 0.00 0.00 0.00 76 1009.3
20260503040113 64 144 0.0 3.0 0.00 0.00 0.00 74 1013.1
20260503040006 64 144 0.0 3.0 0.00 0.00 0.00 74 1009.2
20260503034554 65 0 0.0 4.0 0.00 0.00 0.00 72 1012.7
20260503034506 65 143 0.0 4.0 0.00 0.00 0.00 72 1008.9
20260503033053 66 0 0.0 3.0 0.00 0.00 0.00 70 1012.6
20260503033005 66 143 0.0 3.0 0.00 0.00 0.00 70 1008.7
20260503031602 67 142 0.0 3.0 0.00 0.00 0.00 68 1012.4
20260503031504 67 142 0.0 3.0 0.00 0.00 0.00 68 1008.6
20260503030054 68 0 0.0 4.0 0.00 0.00 0.00 66 1012.3
20260503030005 68 142 0.0 4.0 0.00 0.00 0.00 66 1008.4
20260503024600 69 142 1.0 6.0 0.00 0.00 0.00 64 1012.2
20260503024504 69 145 1.0 5.0 0.00 0.00 0.00 65 1008.2
20260503023051 70 175 0.0 3.0 0.00 0.00 0.00 62 1012.1
20260503023011 70 175 0.0 3.0 0.00 0.00 0.00 62 1008.1
20260503021554 71 175 0.0 4.0 0.00 0.00 0.00 61 1011.8
20260503021502 71 175 1.0 3.0 0.00 0.00 0.00 61 1008.1
20260503020053 72 0 0.0 5.0 0.00 0.00 0.00 60 1011.9
20260503020002 72 177 0.0 4.0 0.00 0.00 0.00 60 1008.1
20260503014608 73 164 0.0 7.0 0.00 0.00 0.00 58 1011.9
20260503014502 73 164 0.0 6.0 0.00 0.00 0.00 59 1008.1
20260503013058 73 0 0.0 6.0 0.00 0.00 0.00 58 1011.6
20260503013001 73 200 0.0 5.0 0.00 0.00 0.00 59 1008.1
20260503011609 74 200 0.0 3.0 0.00 0.00 0.00 58 1008.0
20260503011557 74 200 0.0 3.0 0.00 0.00 0.00 57 1011.8
20260503010105 75 185 2.0 6.0 0.00 0.00 0.00 56 1007.7
20260503010050 75 0 2.0 5.0 0.00 0.00 0.00 55 1011.7
20260503004600 76 216 2.0 6.0 0.00 0.00 0.00 55 1007.8
20260503004553 76 0 1.0 8.0 0.00 0.00 0.00 54 1011.4
20260503003107 77 166 2.0 5.0 0.00 0.00 0.00 53 1007.7
20260503001601 78 182 2.0 8.0 0.00 0.00 0.00 52 1011.5
20260503000110 78 134 2.0 8.0 0.00 0.00 0.00 51 1007.5
20260503000052 78 134 3.0 9.0 0.00 0.00 0.00 51 1011.4
20260502234557 79 220 2.0 8.0 0.00 0.00 0.00 50 1007.7
20260502234552 79 219 1.0 9.0 0.00 0.00 0.00 49 1011.5
20260502233100 80 202 2.0 6.0 0.00 0.00 0.00 49 1007.6
20260502233057 80 189 2.0 6.0 0.00 0.00 0.00 48 1011.5
20260502231554 82 163 2.0 7.0 0.00 0.00 0.00 45 1011.5
20260502230055 82 200 1.0 5.0 0.00 0.00 0.00 46 1011.4
20260502224558 83 194 3.0 8.0 0.00 0.00 0.00 45 1011.7
20260502224552 83 194 3.0 8.0 0.00 0.00 0.00 45 1008.0
20260502223052 84 198 1.0 8.0 0.00 0.00 0.00 42 1008.0
20260502221553 85 123 2.0 6.0 0.00 0.00 0.00 41 1012.2
20260502221550 85 125 2.0 5.0 0.00 0.00 0.00 41 1008.2
20260502220053 85 0 2.0 6.0 0.00 0.00 0.00 40 1012.2
20260502220048 85 181 2.0 6.0 0.00 0.00 0.00 40 1008.5
20260502214550 84 0 2.0 8.0 0.00 0.00 0.00 41 1012.5
20260502214545 84 200 1.0 8.0 0.00 0.00 0.00 41 1008.7
20260502213050 84 196 1.0 6.0 0.00 0.00 0.00 42 1012.6
20260502213045 84 196 1.0 4.0 0.00 0.00 0.00 42 1008.9
20260502211552 84 212 1.0 8.0 0.00 0.00 0.00 41 1012.6